Weather in Leon

Spain     42°36′25″N   5°34′32″W
temp.,
°C
wind,
m/s
gust,
m/s
humid.,
%
clouds,
%
prec.,
mm/h
press.,
hPa
HPBL,
m
14 april, wed
wed1423:00+6ne118739 0.0 102315
02:00+4nnw11916 0.0 102310
05:00+4nne3392100 0.0 102219
08:00+4nne33917 0.0 102119
11:00+10ene34705 0.0 1020542
14:00+15e34485 0.0 10171543
17:00+17ese344057 0.0 10152064
20:00+14e6951100 0.0 1015336
15 april, thu
thu1523:00+9e6116776 0.0 1018223
02:00+6ene48735 0.0 1019149
05:00+4ene23726 0.0 101937
08:00+4ne33605 0.0 102040
11:00+10e23451 0.0 1019678
14:00+15e13333 0.0 10161444
17:00+17ssw143415 0.0 10142087
20:00+14ene464213 0.0 1015284
16 april, fri
fri1623:00+5e34615 0.0 102088
02:00+3ne33760 0.0 102245
05:00+1ne22680 0.0 102215
08:000ene12570 0.0 102310
11:00+5e12375 0.0 1023665
14:00+11s3434100 0.0 10201616
17:00+13ssw34335 0.0 10171788
20:00+12se13411 0.0 1018217
17 april, sat
sat1723:00+3ese475647 0.0 1024174
02:00+1sw12690 0.0 102520
05:00−1wsw23764 0.0 102438
08:00−2w22834 0.0 102531
11:00+5w11490 0.0 1024580
14:00+10s12370 0.0 10211172
17:00+13ssw233693 0.0 10191232
20:00+13nne23425 0.0 1019227
18 april, sun
sun1823:00+5ese34655 0.0 102451
02:00+2ene01765 0.0 102510
05:00+1wsw22795 0.0 102515
08:00+1w117931 0.0 102610
11:00+7sw22533 0.0 1025469
14:00+13sw22390 0.0 1021851
17:00+16ssw223016 0.0 10191148
20:00+15ssw3341100 0.0 101940